When you browse on this site, cookies collect data to enhance your experience and personalize the content and advertising you see.
Visit our Privacy Policy to learn more. By continuing to use the site, you agree to this use of cookies and data.
  • In United Kingdom
  • List of Countries
  • For 7 days
  • Water Temperature
  • Weather Map
  • Weather Widgets
  • user-avatar
    Login

    Hourly Weather Aberkenfig

    Today, 28 February, Friday

    Time Temperature Precipitation Wind Pressure Humidity
    00:00 +1°C° 0 mm 4 mps 749 mmHg 84%
    01:00 +1°C° 0 mm 4 mps 748 mmHg 83%
    02:00 +1°C° 0 mm 5 mps 748 mmHg 82%
    03:00 +1°C° 0 mm 5 mps 747 mmHg 80%
    04:00 +1°C° 0.2 mm 6 mps 746 mmHg 84%
    05:00 +2°C° 0.2 mm 7 mps 745 mmHg 88%
    06:00 +1°C° 0.2 mm 9 mps 744 mmHg 92%
    07:00 +2°C° 1.2 mm 9 mps 743 mmHg 93%
    08:00 +2°C° 1.2 mm 10 mps 742 mmHg 94%
    09:00 +3°C° 1.2 mm 11 mps 740 mmHg 95%
    10:00 +5°C° 2.4 mm 10 mps 740 mmHg 96%
    11:00 +6°C° 2.4 mm 10 mps 739 mmHg 97%
    12:00 +8°C° 2.4 mm 10 mps 738 mmHg 97%
    13:00 +8°C° 0.9 mm 10 mps 738 mmHg 96%
    14:00 +8°C° 0.9 mm 10 mps 737 mmHg 95%
    15:00 +8°C° 0.9 mm 11 mps 737 mmHg 93%
    16:00 +8°C° 0.9 mm 11 mps 736 mmHg 94%
    17:00 +8°C° 0.9 mm 11 mps 735 mmHg 95%
    18:00 +8°C° 0.9 mm 10 mps 735 mmHg 95%
    19:00 +8°C° 1.2 mm 10 mps 734 mmHg 95%
    20:00 +8°C° 1.2 mm 10 mps 733 mmHg 95%
    21:00 +8°C° 1.2 mm 10 mps 732 mmHg 94%
    22:00 +8°C° 0.7 mm 10 mps 731 mmHg 94%
    23:00 +8°C° 0.7 mm 11 mps 729 mmHg 93%

    Tomorrow, 29 February, Saturday

    Time Temperature Precipitation Wind Pressure Humidity
    00:00 +8°C° 0.7 mm 11 mps 728 mmHg 92%
    01:00 +8°C° 1.3 mm 11 mps 727 mmHg 92%
    02:00 +7°C° 1.3 mm 12 mps 726 mmHg 92%
    03:00 +7°C° 1.3 mm 12 mps 725 mmHg 93%
    04:00 +5°C° 0.5 mm 12 mps 725 mmHg 88%
    05:00 +3°C° 0.5 mm 11 mps 725 mmHg 84%
    06:00 +2°C° 0.5 mm 11 mps 726 mmHg 80%
    07:00 +1°C° 0.2 mm 11 mps 726 mmHg 79%
    08:00 +1°C° 0.2 mm 11 mps 726 mmHg 78%
    09:00 -1°C° 0.2 mm 11 mps 727 mmHg 77%
    10:00 0°C° 0.2 mm 12 mps 727 mmHg 73%
    11:00 0°C° 0.2 mm 13 mps 727 mmHg 69%
    12:00 +1°C° 0.2 mm 14 mps 728 mmHg 65%
    13:00 +1°C° 0.2 mm 14 mps 728 mmHg 66%
    14:00 +1°C° 0.2 mm 14 mps 728 mmHg 66%
    15:00 +1°C° 0.2 mm 14 mps 728 mmHg 67%
    16:00 0°C° 0.1 mm 14 mps 728 mmHg 71%
    17:00 0°C° 0.1 mm 13 mps 728 mmHg 75%
    18:00 -1°C° 0.1 mm 13 mps 728 mmHg 80%
    19:00 -1°C° 0.3 mm 13 mps 728 mmHg 77%
    20:00 -1°C° 0.3 mm 13 mps 728 mmHg 74%
    21:00 -1°C° 0.3 mm 13 mps 728 mmHg 72%
    22:00 -1°C° 0.3 mm 13 mps 729 mmHg 73%
    23:00 -1°C° 0.3 mm 13 mps 729 mmHg 75%

    Day after tomorrow, 1 March, Sunday

    Time Temperature Precipitation Wind Pressure Humidity
    00:00 -1°C° 0.3 mm 14 mps 729 mmHg 77%
    01:00 0°C° 0.3 mm 13 mps 729 mmHg 77%
    02:00 0°C° 0.3 mm 13 mps 730 mmHg 77%
    03:00 0°C° 0.3 mm 12 mps 730 mmHg 76%
    04:00 0°C° 0.2 mm 12 mps 730 mmHg 76%
    05:00 -1°C° 0.2 mm 11 mps 730 mmHg 75%
    06:00 -1°C° 0.2 mm 11 mps 730 mmHg 74%
    07:00 +1°C° 0.2 mm 10 mps 730 mmHg 75%
    08:00 +1°C° 0.2 mm 10 mps 730 mmHg 75%
    09:00 +1°C° 0.2 mm 10 mps 730 mmHg 75%
    10:00 +2°C° 0.3 mm 10 mps 730 mmHg 74%
    11:00 +2°C° 0.3 mm 10 mps 730 mmHg 73%
    12:00 +3°C° 0.3 mm 10 mps 730 mmHg 72%
    13:00 +3°C° 0.3 mm 10 mps 730 mmHg 73%
    14:00 +3°C° 0.3 mm 10 mps 730 mmHg 74%
    15:00 +2°C° 0.3 mm 10 mps 730 mmHg 74%
    16:00 +2°C° 0.1 mm 9 mps 730 mmHg 76%
    17:00 +1°C° 0.1 mm 8 mps 729 mmHg 78%
    18:00 +2°C° 0.1 mm 7 mps 729 mmHg 80%
    19:00 +1°C° 0.1 mm 6 mps 729 mmHg 81%
    20:00 +1°C° 0.1 mm 5 mps 729 mmHg 83%
    21:00 +1°C° 0.1 mm 5 mps 729 mmHg 85%
    22:00 0°C° 0 mm 5 mps 729 mmHg 85%
    23:00 0°C° 0 mm 4 mps 729 mmHg 85%

    2 March, Monday

    Time Temperature Precipitation Wind Pressure Humidity
    00:00 -1°C° 0 mm 4 mps 729 mmHg 86%
    01:00 -1°C° 0 mm 5 mps 729 mmHg 86%
    02:00 -1°C° 0 mm 5 mps 730 mmHg 86%
    03:00 -1°C° 0 mm 5 mps 730 mmHg 87%
    04:00 -1°C° 0 mm 5 mps 730 mmHg 86%
    05:00 -2°C° 0 mm 5 mps 731 mmHg 86%
    06:00 -2°C° 0 mm 5 mps 731 mmHg 86%
    07:00 -2°C° 0.1 mm 6 mps 732 mmHg 81%
    08:00 -1°C° 0.1 mm 7 mps 732 mmHg 77%
    09:00 +2°C° 0.1 mm 7 mps 733 mmHg 72%
    10:00 +1°C° 0.1 mm 8 mps 733 mmHg 70%
    11:00 +2°C° 0.1 mm 8 mps 734 mmHg 67%
    12:00 +2°C° 0.1 mm 9 mps 734 mmHg 64%
    13:00 +2°C° 0.2 mm 9 mps 734 mmHg 64%
    14:00 +2°C° 0.2 mm 9 mps 734 mmHg 65%
    15:00 +2°C° 0.2 mm 9 mps 735 mmHg 66%
    16:00 +1°C° 0.1 mm 8 mps 735 mmHg 69%
    17:00 +1°C° 0.1 mm 8 mps 736 mmHg 73%
    18:00 0°C° 0.1 mm 7 mps 737 mmHg 77%
    19:00 -1°C° 0.1 mm 7 mps 737 mmHg 78%
    20:00 -1°C° 0.1 mm 7 mps 738 mmHg 79%
    21:00 -1°C° 0.1 mm 7 mps 738 mmHg 81%
    22:00 -1°C° 0 mm 8 mps 739 mmHg 80%
    23:00 -2°C° 0 mm 8 mps 739 mmHg 80%

    3 March, Tuesday

    Time Temperature Precipitation Wind Pressure Humidity
    00:00 -2°C° 0 mm 8 mps 740 mmHg 79%
    01:00 -2°C° 0 mm 8 mps 740 mmHg 79%
    02:00 -3°C° 0 mm 9 mps 741 mmHg 79%
    03:00 -3°C° 0 mm 9 mps 741 mmHg 79%
    04:00 -2°C° 0 mm 8 mps 741 mmHg 79%
    05:00 -2°C° 0 mm 8 mps 742 mmHg 79%
    06:00 -2°C° 0 mm 7 mps 742 mmHg 78%
    07:00 -1°C° 0 mm 7 mps 742 mmHg 76%
    08:00 +1°C° 0 mm 6 mps 742 mmHg 74%
    09:00 +2°C° 0 mm 6 mps 743 mmHg 71%
    10:00 +3°C° 0.1 mm 6 mps 742 mmHg 69%
    11:00 +4°C° 0.1 mm 6 mps 742 mmHg 66%
    12:00 +4°C° 0.1 mm 6 mps 742 mmHg 63%
    13:00 +5°C° 0 mm 5 mps 742 mmHg 62%
    14:00 +5°C° 0 mm 5 mps 742 mmHg 62%
    15:00 +5°C° 0 mm 5 mps 742 mmHg 61%
    16:00 +4°C° 0 mm 4 mps 741 mmHg 66%
    17:00 +3°C° 0 mm 3 mps 741 mmHg 71%
    18:00 +2°C° 0 mm 2 mps 741 mmHg 76%
    19:00 +2°C° 0 mm 2 mps 741 mmHg 77%
    20:00 +2°C° 0 mm 1 mps 741 mmHg 78%
    21:00 +2°C° 0 mm 1 mps 741 mmHg 78%
    22:00 +2°C° 0 mm 1 mps 741 mmHg 79%
    23:00 +1°C° 0 mm 2 mps 741 mmHg 79%

    4 March, Wednesday

    Time Temperature Precipitation Wind Pressure Humidity
    00:00 -1°C° 0 mm 2 mps 741 mmHg 79%
    01:00 -1°C° 0 mm 2 mps 741 mmHg 79%
    02:00 -1°C° 0 mm 2 mps 741 mmHg 79%
    03:00 -1°C° 0 mm 2 mps 740 mmHg 80%
    04:00 -1°C° 0 mm 2 mps 740 mmHg 79%
    05:00 -1°C° 0 mm 2 mps 741 mmHg 79%
    06:00 -1°C° 0 mm 3 mps 741 mmHg 79%
    07:00 0°C° 0 mm 3 mps 741 mmHg 75%
    08:00 +1°C° 0 mm 3 mps 741 mmHg 71%
    09:00 +2°C° 0 mm 3 mps 740 mmHg 67%
    10:00 +3°C° 0 mm 4 mps 740 mmHg 66%
    11:00 +3°C° 0 mm 5 mps 740 mmHg 64%
    12:00 +5°C° 0 mm 5 mps 740 mmHg 62%
    13:00 +4°C° 0 mm 6 mps 740 mmHg 65%
    14:00 +5°C° 0 mm 6 mps 739 mmHg 68%
    15:00 +5°C° 0 mm 6 mps 738 mmHg 70%
    16:00 +4°C° 0 mm 6 mps 738 mmHg 73%
    17:00 +3°C° 0 mm 6 mps 738 mmHg 75%
    18:00 +2°C° 0 mm 7 mps 738 mmHg 77%
    19:00 0°C° 0 mm 7 mps 738 mmHg 77%
    20:00 0°C° 0 mm 7 mps 739 mmHg 76%
    21:00 -1°C° 0 mm 7 mps 739 mmHg 76%
    22:00 -1°C° 0 mm 6 mps 739 mmHg 78%
    23:00 -2°C° 0 mm 6 mps 740 mmHg 79%
    Show more